GW0029 Weather Reports


Display with metric or nautical units.
time (UTC)temp
F
wind
direction
speed
MPH
gust
MPH
rain 1hr
in
rain 24hr
in
rain mn
in
humidity
%
barometer
mb
20260510092005 50 198 3.0 6.0 0.00 0.00 0.00 67 1012.0
20260510091504 50 199 4.0 9.0 0.00 0.00 0.00 65 1012.0
20260510091005 50 198 4.0 9.0 0.00 0.00 0.00 65 1012.0
20260510090504 50 201 4.0 8.0 0.00 0.00 0.00 63 1012.0
20260510090006 50 199 4.0 8.0 0.00 0.00 0.00 60 1012.0
20260510085504 50 204 3.0 7.0 0.00 0.00 0.00 60 1013.0
20260510085004 51 211 3.0 8.0 0.00 0.00 0.00 58 1013.0
20260510084504 51 205 2.0 8.0 0.00 0.00 0.00 57 1013.0
20260510083503 51 211 2.0 6.0 0.00 0.00 0.00 56 1012.0
20260510083005 51 216 0.0 5.0 0.00 0.00 0.00 56 1012.0
20260510082504 51 208 1.0 4.0 0.00 0.00 0.00 55 1012.0
20260510082005 51 192 2.0 5.0 0.00 0.00 0.00 55 1012.0
20260510081503 51 151 2.0 7.0 0.00 0.00 0.00 55 1012.0
20260510080503 51 167 3.0 6.0 0.00 0.00 0.00 54 1013.0
20260510080007 51 165 2.0 6.0 0.00 0.00 0.00 54 1013.0
20260510075503 51 185 1.0 5.0 0.00 0.00 0.00 55 1013.0
20260510075005 51 184 1.0 5.0 0.00 0.00 0.00 56 1013.0
20260510074503 51 169 1.0 5.0 0.00 0.00 0.00 55 1013.0
20260510074004 51 154 1.0 5.0 0.00 0.00 0.00 55 1013.0
20260510073503 51 161 2.0 5.0 0.00 0.00 0.00 55 1013.0
20260510073004 51 156 1.0 5.0 0.00 0.00 0.00 55 1013.0
20260510072503 51 130 3.0 6.0 0.00 0.00 0.00 55 1013.0
20260510071503 51 134 2.0 8.0 0.00 0.00 0.00 55 1013.0
20260510071005 51 140 3.0 8.0 0.00 0.00 0.00 54 1013.0
20260510070005 51 152 5.0 9.0 0.00 0.00 0.00 54 1013.0
20260510065503 51 156 6.0 9.0 0.00 0.00 0.00 53 1014.0
20260510065004 51 163 5.0 9.0 0.00 0.00 0.00 53 1014.0
20260510064504 52 170 4.0 8.0 0.00 0.00 0.00 54 1014.0
20260510063503 53 171 6.0 12.0 0.00 0.00 0.00 52 1014.0
20260510062504 53 151 7.0 12.0 0.00 0.00 0.00 54 1014.0
20260510062004 53 140 7.0 10.0 0.00 0.00 0.00 54 1014.0
20260510060503 50 156 6.0 10.0 0.00 0.00 0.00 62 1015.0
20260510060005 49 132 5.0 8.0 0.00 0.00 0.00 65 1015.0
20260510054504 47 105 7.0 10.0 0.00 0.00 0.00 69 1014.0
20260510054004 46 101 7.0 10.0 0.00 0.00 0.00 70 1014.0
20260510053504 46 100 6.0 8.0 0.00 0.00 0.00 71 1014.0
20260510053004 45 107 7.0 9.0 0.00 0.00 0.00 72 1014.0
20260510052504 45 112 7.0 9.0 0.00 0.00 0.00 72 1013.0
20260510051503 44 115 6.0 8.0 0.00 0.00 0.00 72 1013.0
20260510050006 44 115 6.0 8.0 0.00 0.00 0.00 73 1014.0
20260510045503 44 118 6.0 8.0 0.00 0.00 0.00 73 1014.0
20260510045004 43 115 6.0 7.0 0.00 0.00 0.00 73 1014.0
20260510044504 43 117 6.0 7.0 0.00 0.00 0.00 74 1014.0
20260510043503 42 118 5.0 7.0 0.00 0.00 0.00 75 1015.0
20260510043005 42 121 5.0 7.0 0.00 0.00 0.00 76 1015.0
20260510042503 42 118 5.0 7.0 0.00 0.00 0.00 77 1015.0
20260510042005 41 119 5.0 6.0 0.00 0.00 0.00 78 1015.0
20260510040504 40 112 6.0 8.0 0.00 0.00 0.00 79 1015.0
20260510035503 39 121 6.0 7.0 0.00 0.00 0.00 79 1015.0
20260510035005 39 120 5.0 7.0 0.00 0.00 0.00 79 1015.0
20260510034503 39 117 6.0 7.0 0.00 0.00 0.00 79 1015.0
20260510034005 39 115 6.0 8.0 0.00 0.00 0.00 79 1015.0
20260510033503 39 116 6.0 8.0 0.00 0.00 0.00 80 1015.0
20260510033005 39 117 6.0 7.0 0.00 0.00 0.00 80 1015.0
20260510032503 39 115 6.0 7.0 0.00 0.00 0.00 81 1015.0
20260510032004 39 118 5.0 7.0 0.00 0.00 0.00 81 1015.0
20260510031504 39 121 5.0 7.0 0.00 0.00 0.00 81 1015.0
20260510031005 39 117 5.0 8.0 0.00 0.00 0.00 82 1015.0
20260510030504 39 118 5.0 8.0 0.00 0.00 0.00 82 1015.0
20260510025503 39 120 5.0 7.0 0.00 0.00 0.00 82 1016.0
20260510025005 39 127 5.0 5.0 0.00 0.00 0.00 81 1016.0
20260510024503 39 128 5.0 6.0 0.00 0.00 0.00 82 1016.0
20260510024005 39 125 5.0 6.0 0.00 0.00 0.00 82 1016.0
20260510023503 39 126 5.0 5.0 0.00 0.00 0.00 81 1016.0
20260510023005 38 124 4.0 5.0 0.00 0.00 0.00 80 1016.0
20260510022504 38 121 4.0 5.0 0.00 0.00 0.00 81 1016.0
20260510022004 38 119 5.0 6.0 0.00 0.00 0.00 82 1016.0
20260510021504 38 116 5.0 7.0 0.00 0.00 0.00 82 1016.0
20260510021004 38 114 6.0 8.0 0.00 0.00 0.00 81 1016.0
20260510020503 38 112 6.0 8.0 0.00 0.00 0.00 81 1016.0
20260510020005 38 110 6.0 7.0 0.00 0.00 0.00 81 1016.0
20260510015504 39 113 6.0 7.0 0.00 0.00 0.00 80 1015.0
20260510014503 39 116 6.0 7.0 0.00 0.00 0.00 79 1015.0
20260510014004 39 113 5.0 6.0 0.00 0.00 0.00 79 1016.0
20260510013504 39 116 5.0 6.0 0.00 0.00 0.00 79 1016.0
20260510012503 39 118 5.0 8.0 0.00 0.00 0.00 77 1016.0
20260510012005 39 115 6.0 8.0 0.00 0.00 0.00 77 1016.0
20260510011503 39 117 6.0 7.0 0.00 0.00 0.00 76 1016.0
20260510011005 40 118 5.0 7.0 0.00 0.00 0.00 76 1016.0
20260510010504 40 119 5.0 7.0 0.00 0.00 0.00 76 1016.0
20260510010005 40 116 6.0 7.0 0.00 0.00 0.00 76 1016.0
20260510005504 40 120 4.0 7.0 0.00 0.00 0.00 76 1017.0
20260510005004 40 140 3.0 5.0 0.00 0.00 0.00 74 1017.0
20260510004504 40 133 4.0 6.0 0.00 0.00 0.00 74 1017.0
20260510004006 40 121 5.0 7.0 0.00 0.00 0.00 74 1017.0
20260510003504 40 120 6.0 7.0 0.00 0.00 0.00 74 1017.0
20260510003005 40 121 6.0 7.0 0.00 0.00 0.00 73 1017.0
20260510002503 40 117 6.0 7.0 0.00 0.00 0.00 74 1018.0
20260510002005 40 114 6.0 7.0 0.00 0.00 0.00 73 1018.0
20260510001503 40 115 6.0 7.0 0.00 0.00 0.00 73 1018.0
20260510001004 40 118 5.0 7.0 0.00 0.00 0.00 73 1018.0
20260510000005 40 115 5.0 7.0 0.00 0.00 0.00 73 1018.0
20260509235005 40 115 5.0 7.0 0.00 0.00 0.00 73 1019.0
20260509234006 40 116 6.0 8.0 0.00 0.00 0.00 74 1018.0
20260509233503 40 111 6.0 8.0 0.00 0.00 0.00 74 1018.0
20260509233004 40 106 3.0 8.0 0.00 0.00 0.00 74 1018.0
20260509232005 40 112 4.0 7.0 0.00 0.00 0.00 73 1018.0
20260509231504 41 104 5.0 7.0 0.00 0.00 0.00 74 1018.0
20260509231005 41 102 6.0 7.0 0.00 0.00 0.00 73 1018.0
20260509230504 41 100 5.0 7.0 0.00 0.00 0.00 73 1018.0
20260509225504 42 92 4.0 5.0 0.00 0.00 0.00 72 1017.0
20260509225004 42 97 4.0 6.0 0.00 0.00 0.00 73 1017.0
20260509224504 42 97 4.0 6.0 0.00 0.00 0.00 72 1017.0
20260509224005 42 93 3.0 6.0 0.00 0.00 0.00 71 1018.0
20260509223005 42 68 0.0 4.0 0.00 0.00 0.00 68 1018.0
20260509222504 42 85 1.0 4.0 0.00 0.00 0.00 68 1018.0
20260509222004 42 90 0.0 4.0 0.00 0.00 0.00 68 1018.0
20260509221504 42 93 1.0 5.0 0.00 0.00 0.00 69 1018.0
20260509221004 42 92 3.0 5.0 0.00 0.00 0.00 71 1018.0
20260509220503 42 91 3.0 5.0 0.00 0.00 0.00 70 1018.0
20260509220004 42 90 1.0 5.0 0.00 0.00 0.00 67 1018.0
20260509215504 43 91 3.0 5.0 0.00 0.00 0.00 66 1018.0
20260509215004 43 90 4.0 5.0 0.00 0.00 0.00 67 1018.0
20260509214503 43 88 1.0 5.0 0.00 0.00 0.00 65 1018.0
20260509213504 43 0 0.0 0.0 0.00 0.00 0.00 64 1018.0
20260509213005 43 0 0.0 0.0 0.00 0.00 0.00 63 1018.0
20260509212504 43 0 0.0 0.0 0.00 0.00 0.00 62 1018.0
20260509212004 43 0 0.0 0.0 0.00 0.00 0.00 61 1018.0
20260509211005 44 0 0.0 0.0 0.00 0.00 0.00 60 1019.0
20260509210504 44 0 0.0 0.0 0.00 0.00 0.00 59 1019.0
20260509210005 44 0 0.0 0.0 0.00 0.00 0.00 59 1019.0
20260509205005 45 0 0.0 0.0 0.00 0.00 0.00 59 1018.0
20260509204005 46 0 0.0 0.0 0.00 0.00 0.00 59 1019.0
20260509203503 46 0 0.0 0.0 0.00 0.00 0.00 58 1019.0
20260509202504 47 0 0.0 0.0 0.00 0.00 0.00 53 1019.0
20260509202005 47 0 0.0 0.0 0.00 0.00 0.00 52 1019.0
20260509201504 48 0 0.0 0.0 0.00 0.00 0.00 51 1019.0
20260509200504 48 0 0.0 0.0 0.00 0.00 0.00 51 1019.0
20260509200005 48 0 0.0 0.0 0.00 0.00 0.00 50 1019.0
20260509195503 49 0 0.0 0.0 0.00 0.00 0.00 50 1019.0
20260509195005 49 0 0.0 0.0 0.00 0.00 0.00 50 1019.0
20260509194503 49 0 0.0 0.0 0.00 0.00 0.00 50 1019.0
20260509194004 49 0 0.0 0.0 0.00 0.00 0.00 50 1019.0
20260509193504 50 0 0.0 0.0 0.00 0.00 0.00 50 1019.0
20260509193005 50 0 0.0 0.0 0.00 0.00 0.00 50 1019.0
20260509192504 51 0 0.0 0.0 0.00 0.00 0.00 50 1019.0
20260509192004 51 0 0.0 0.0 0.00 0.00 0.00 50 1019.0
20260509191505 51 0 0.0 0.0 0.00 0.00 0.00 49 1019.0
20260509191005 51 0 0.0 0.0 0.00 0.00 0.00 49 1018.0
20260509190504 52 0 0.0 0.0 0.00 0.00 0.00 49 1018.0
20260509190005 52 0 0.0 0.0 0.00 0.00 0.00 49 1018.0
20260509185503 53 0 0.0 0.0 0.00 0.00 0.00 48 1018.0
20260509185005 53 0 0.0 0.0 0.00 0.00 0.00 48 1018.0
20260509184505 53 0 0.0 0.0 0.00 0.00 0.00 48 1018.0
20260509184005 54 310 1.0 5.0 0.00 0.00 0.00 47 1018.0
20260509183503 54 315 2.0 5.0 0.00 0.00 0.00 47 1018.0
20260509183005 54 321 1.0 5.0 0.00 0.00 0.00 47 1018.0
20260509182503 54 314 1.0 5.0 0.00 0.00 0.00 47 1018.0
20260509181504 55 312 1.0 5.0 0.00 0.00 0.00 47 1018.0
20260509181005 55 304 0.0 5.0 0.00 0.00 0.00 46 1018.0
20260509180504 55 311 1.0 5.0 0.00 0.00 0.00 46 1018.0
20260509180005 56 320 3.0 6.0 0.00 0.00 0.00 46 1018.0
20260509175504 56 323 3.0 6.0 0.00 0.00 0.00 44 1018.0
20260509175005 56 318 3.0 8.0 0.00 0.00 0.00 44 1018.0
20260509174005 57 319 7.0 10.0 0.00 0.00 0.00 43 1018.0
20260509173504 57 315 6.0 10.0 0.00 0.00 0.00 43 1018.0
20260509173004 58 317 6.0 9.0 0.00 0.00 0.00 42 1018.0
20260509172505 58 324 6.0 9.0 0.00 0.00 0.00 41 1018.0
20260509172004 58 323 7.0 11.0 0.00 0.00 0.00 41 1018.0
20260509171504 59 319 6.0 11.0 0.00 0.00 0.00 41 1018.0
20260509171005 59 310 3.0 11.0 0.00 0.00 0.00 40 1019.0
20260509170504 59 278 2.0 6.0 0.00 0.00 0.00 37 1019.0
20260509165504 60 271 1.0 6.0 0.00 0.00 0.00 37 1019.0
20260509165004 60 282 2.0 7.0 0.00 0.00 0.00 36 1019.0
20260509164504 60 283 2.0 7.0 0.00 0.00 0.00 37 1019.0
20260509163004 60 275 3.0 8.0 0.00 0.00 0.00 36 1019.0
20260509162504 61 275 1.0 6.0 0.00 0.00 0.00 36 1019.0
20260509161503 61 280 1.0 7.0 0.00 0.00 0.00 36 1019.0
20260509161005 61 283 1.0 7.0 0.00 0.00 0.00 36 1019.0
20260509160005 60 260 3.0 10.0 0.00 0.00 0.00 36 1019.0
20260509155503 61 265 3.0 8.0 0.00 0.00 0.00 37 1019.0
20260509154503 61 277 3.0 9.0 0.00 0.00 0.00 36 1019.0
20260509154005 61 272 1.0 6.0 0.00 0.00 0.00 37 1020.0
20260509153503 61 276 2.0 8.0 0.00 0.00 0.00 37 1020.0
20260509153005 61 280 3.0 9.0 0.00 0.00 0.00 37 1020.0
20260509152503 61 260 4.0 9.0 0.00 0.00 0.00 37 1020.0
20260509152005 61 251 4.0 7.0 0.00 0.00 0.00 37 1020.0
20260509151503 61 266 3.0 6.0 0.00 0.00 0.00 38 1020.0
20260509150503 60 263 3.0 7.0 0.00 0.00 0.00 37 1020.0
20260509150006 60 280 2.0 7.0 0.00 0.00 0.00 38 1020.0
20260509145005 60 269 3.0 8.0 0.00 0.00 0.00 38 1021.0
20260509144503 60 287 4.0 10.0 0.00 0.00 0.00 38 1021.0
20260509144005 61 282 3.0 10.0 0.00 0.00 0.00 39 1020.0
20260509143503 61 259 3.0 10.0 0.00 0.00 0.00 39 1020.0
20260509143005 61 250 3.0 10.0 0.00 0.00 0.00 39 1020.0
20260509142503 60 268 3.0 7.0 0.00 0.00 0.00 39 1019.0
20260509142005 60 269 4.0 8.0 0.00 0.00 0.00 40 1019.0
20260509141005 61 277 5.0 11.0 0.00 0.00 0.00 40 1020.0
20260509140006 61 242 4.0 8.0 0.00 0.00 0.00 40 1020.0
20260509135503 61 264 5.0 8.0 0.00 0.00 0.00 40 1020.0
20260509135005 61 271 4.0 9.0 0.00 0.00 0.00 39 1020.0
20260509134503 61 242 3.0 9.0 0.00 0.00 0.00 41 1020.0
20260509134005 61 236 3.0 6.0 0.00 0.00 0.00 40 1020.0
20260509133503 61 235 3.0 8.0 0.00 0.00 0.00 41 1020.0
20260509133005 61 243 3.0 8.0 0.00 0.00 0.00 41 1020.0
20260509132503 61 258 3.0 6.0 0.00 0.00 0.00 41 1021.0
20260509132005 61 265 3.0 6.0 0.00 0.00 0.00 42 1021.0
20260509131504 61 257 4.0 9.0 0.00 0.00 0.00 40 1021.0
20260509131004 61 259 4.0 9.0 0.00 0.00 0.00 42 1021.0
20260509130505 61 268 3.0 8.0 0.00 0.00 0.00 40 1021.0
20260509130005 61 241 3.0 8.0 0.00 0.00 0.00 41 1021.0
20260509125504 61 239 4.0 8.0 0.00 0.00 0.00 43 1022.0
20260509125005 61 254 3.0 8.0 0.00 0.00 0.00 44 1022.0
20260509124503 61 271 4.0 10.0 0.00 0.00 0.00 43 1022.0
20260509124005 61 271 4.0 10.0 0.00 0.00 0.00 43 1022.0
20260509123504 61 285 4.0 8.0 0.00 0.00 0.00 42 1022.0
20260509123005 61 283 3.0 8.0 0.00 0.00 0.00 42 1022.0
20260509122505 61 270 3.0 8.0 0.00 0.00 0.00 43 1022.0
20260509122006 61 281 3.0 8.0 0.00 0.00 0.00 47 1022.0
20260509121504 61 259 4.0 7.0 0.00 0.00 0.00 48 1022.0
20260509121005 61 243 3.0 7.0 0.00 0.00 0.00 49 1022.0
20260509120503 61 242 3.0 8.0 0.00 0.00 0.00 50 1022.0
20260509115504 61 236 4.0 9.0 0.00 0.00 0.00 51 1022.0
20260509115005 61 234 3.0 9.0 0.00 0.00 0.00 49 1022.0
20260509114503 61 231 3.0 9.0 0.00 0.00 0.00 51 1022.0
20260509114005 61 255 3.0 7.0 0.00 0.00 0.00 49 1022.0
20260509112504 61 261 3.0 10.0 0.00 0.00 0.00 50 1022.0
20260509112005 61 249 3.0 8.0 0.00 0.00 0.00 49 1022.0
20260509111503 61 257 3.0 8.0 0.00 0.00 0.00 51 1022.0
20260509110503 61 286 3.0 7.0 0.00 0.00 0.00 49 1021.0
20260509110004 61 283 4.0 8.0 0.00 0.00 0.00 47 1021.0
20260509105503 61 264 4.0 8.0 0.00 0.00 0.00 46 1022.0
20260509104503 60 230 4.0 8.0 0.00 0.00 0.00 45 1022.0
20260509104005 61 225 3.0 8.0 0.00 0.00 0.00 44 1022.0
20260509103505 60 258 3.0 6.0 0.00 0.00 0.00 46 1022.0
20260509103005 60 257 2.0 6.0 0.00 0.00 0.00 44 1022.0
20260509102503 61 99 2.0 8.0 0.00 0.00 0.00 38 1022.0
20260509101503 61 125 4.0 12.0 0.00 0.00 0.00 38 1022.0
20260509100503 61 85 7.0 11.0 0.00 0.00 0.00 39 1022.0
20260509095005 61 96 8.0 12.0 0.00 0.00 0.00 39 1022.0
20260509094504 61 98 8.0 12.0 0.00 0.00 0.00 40 1022.0
20260509093503 60 95 7.0 13.0 0.00 0.00 0.00 41 1022.0
20260509093004 60 88 6.0 11.0 0.00 0.00 0.00 42 1022.0
20260509092504 60 92 7.0 11.0 0.00 0.00 0.00 43 1022.0